This is the latest recevied weather packets stored in our database for station/object N8VDS-10. If no packets are shown the sender has not sent any weather packets the latest 10 day(s).
| Time | Temp. | Humidity | Pressure | Rain* | Wind** | Luminosity | Snow |
|---|---|---|---|---|---|---|---|
| 1777820194 | 12.22° C | 44% | 1015.8 hPa | 0 mm | - | 132 W/m² | - |
| 1777819891 | 12.22° C | 45% | 1015.6 hPa | 0 mm | - | 127 W/m² | - |
| 1777819589 | 12.78° C | 43% | 1015.7 hPa | 0 mm | - | 99 W/m² | - |
| 1777819286 | 12.78° C | 43% | 1015.6 hPa | 0 mm | - | 118 W/m² | - |
| 1777818983 | 12.78° C | 44% | 1015.6 hPa | 0 mm | - | 305 W/m² | - |
| 1777818680 | 12.78° C | 43% | 1015.6 hPa | 0 mm | - | 496 W/m² | - |
| 1777818376 | 12.78° C | 43% | 1015.6 hPa | 0 mm | - | 300 W/m² | - |
| 1777818073 | 12.78° C | 43% | 1015.5 hPa | 0 mm | - | 420 W/m² | - |
| 1777817770 | 12.22° C | 45% | 1015.6 hPa | 0 mm | - | 481 W/m² | - |
| 1777817468 | 11.67° C | 45% | 1015.7 hPa | 0 mm | - | 454 W/m² | - |
| 1777817163 | 11.67° C | 46% | 1015.6 hPa | 0 mm | - | 423 W/m² | - |
| 1777816861 | 11.11° C | 46% | 1015.8 hPa | 0 mm | - | 392 W/m² | - |
| 1777816558 | 11.11° C | 47% | 1015.9 hPa | 0 mm | - | 362 W/m² | - |
| 1777816255 | 10.56° C | 47% | 1015.8 hPa | 0 mm | - | 351 W/m² | - |
| 1777815952 | 10° C | 48% | 1016 hPa | 0 mm | - | 304 W/m² | - |
| 1777815650 | 10.56° C | 48% | 1016 hPa | 0 mm | - | 294 W/m² | - |
| 1777815347 | 10° C | 49% | 1016.1 hPa | 0 mm | - | 284 W/m² | - |
| 1777815044 | 10° C | 48% | 1016.2 hPa | 0 mm | - | 258 W/m² | - |
| 1777814740 | 10° C | 49% | 1016.2 hPa | 0 mm | - | 287 W/m² | - |
| 1777814437 | 10° C | 49% | 1016 hPa | 0 mm | - | 242 W/m² | - |
| 1777814134 | 10° C | 49% | 1016.1 hPa | 0 mm | - | 265 W/m² | - |
| 1777813831 | 9.44° C | 49% | 1016.1 hPa | 0 mm | - | 300 W/m² | - |
| 1777813528 | 9.44° C | 50% | 1016.1 hPa | 0 mm | - | 238 W/m² | - |
| 1777813226 | 8.89° C | 51% | 1016.1 hPa | 0 mm | - | 210 W/m² | - |
| 1777812923 | 8.89° C | 52% | 1016 hPa | 0 mm | - | 245 W/m² | - |
* Rain latest hour (hover to see other rain measurements)
** Current wind speed in m/s (hover to see current wind gust speed)